When you browse on this site, cookies collect data to enhance your experience and personalize the content and advertising you see.
Visit our Privacy Policy to learn more. By continuing to use the site, you agree to this use of cookies and data.
  • In Österreich
  • Länderverzeichnis
  • Für 7 Tage
  • Wassertemperatur
  • Satellitenkarten
  • Wetterkarte
  • News
  • Widgets
  • user-avatar
    Anmelden

    Stündliche Wetter Rohizka

    Heute, 19 Mai, Sonntag

    Zeit Temperatur Niederschläge Wind Luftdruck Luftfeuchtigkeit
    00:00 +19°C° 0 mm 4 m/S 740 mmHg 91%
    01:00 +18°C° 0 mm 4 m/S 739 mmHg 92%
    02:00 +17°C° 0 mm 3 m/S 739 mmHg 95%
    03:00 +17°C° 0.9 mm 3 m/S 739 mmHg 95%
    04:00 +17°C° 0.9 mm 3 m/S 740 mmHg 96%
    05:00 +17°C° 0.9 mm 3 m/S 740 mmHg 97%
    06:00 +18°C° 0.1 mm 3 m/S 740 mmHg 93%
    07:00 +19°C° 0.1 mm 4 m/S 740 mmHg 90%
    08:00 +20°C° 0 mm 5 m/S 741 mmHg 84%
    09:00 +21°C° 0 mm 5 m/S 741 mmHg 80%
    10:00 +22°C° 0 mm 5 m/S 741 mmHg 76%
    11:00 +25°C° 0 mm 5 m/S 741 mmHg 72%
    12:00 +25°C° 0.9 mm 5 m/S 741 mmHg 71%
    13:00 +26°C° 0.9 mm 5 m/S 741 mmHg 70%
    14:00 +26°C° 0.9 mm 5 m/S 741 mmHg 68%
    15:00 +26°C° 2 mm 5 m/S 741 mmHg 71%
    16:00 +25°C° 2 mm 4 m/S 741 mmHg 74%
    17:00 +25°C° 2 mm 4 m/S 741 mmHg 76%
    18:00 +24°C° 0.1 mm 3 m/S 741 mmHg 79%
    19:00 +22°C° 0.1 mm 3 m/S 741 mmHg 81%
    20:00 +21°C° 0.1 mm 3 m/S 741 mmHg 84%
    21:00 +20°C° 1.8 mm 3 m/S 741 mmHg 86%
    22:00 +19°C° 1.8 mm 3 m/S 741 mmHg 88%
    23:00 +19°C° 1.8 mm 3 m/S 741 mmHg 90%

    Morgen, 20 Mai, Montag

    Zeit Temperatur Niederschläge Wind Luftdruck Luftfeuchtigkeit
    00:00 +18°C° 1 mm 3 m/S 742 mmHg 91%
    01:00 +18°C° 1 mm 3 m/S 742 mmHg 91%
    02:00 +17°C° 1 mm 3 m/S 742 mmHg 91%
    03:00 +17°C° 0 mm 3 m/S 742 mmHg 92%
    04:00 +17°C° 0 mm 3 m/S 742 mmHg 93%
    05:00 +16°C° 0 mm 3 m/S 742 mmHg 94%
    06:00 +18°C° 0 mm 4 m/S 742 mmHg 89%
    07:00 +19°C° 0 mm 5 m/S 742 mmHg 85%
    08:00 +21°C° 0 mm 6 m/S 743 mmHg 81%
    09:00 +22°C° 0 mm 7 m/S 743 mmHg 77%
    10:00 +23°C° 0 mm 7 m/S 743 mmHg 74%
    11:00 +24°C° 0 mm 8 m/S 743 mmHg 70%
    12:00 +24°C° 0.1 mm 8 m/S 742 mmHg 71%
    13:00 +24°C° 0.1 mm 7 m/S 742 mmHg 72%
    14:00 +24°C° 0.1 mm 7 m/S 742 mmHg 73%
    15:00 +24°C° 0.1 mm 7 m/S 742 mmHg 73%
    16:00 +24°C° 0.1 mm 7 m/S 741 mmHg 74%
    17:00 +23°C° 0.1 mm 7 m/S 741 mmHg 75%
    18:00 +22°C° 0 mm 6 m/S 741 mmHg 78%
    19:00 +21°C° 0 mm 6 m/S 741 mmHg 82%
    20:00 +20°C° 0 mm 5 m/S 741 mmHg 86%
    21:00 +19°C° 0 mm 5 m/S 741 mmHg 85%
    22:00 +17°C° 0 mm 6 m/S 741 mmHg 85%
    23:00 +17°C° 0 mm 6 m/S 742 mmHg 84%

    übermorgen, 21 Mai, Dienstag

    Zeit Temperatur Niederschläge Wind Luftdruck Luftfeuchtigkeit
    00:00 +16°C° 0 mm 6 m/S 741 mmHg 87%
    01:00 +16°C° 0 mm 6 m/S 741 mmHg 90%
    02:00 +16°C° 0 mm 6 m/S 741 mmHg 92%
    03:00 +15°C° 0 mm 6 m/S 741 mmHg 93%
    04:00 +15°C° 0 mm 6 m/S 741 mmHg 94%
    05:00 +15°C° 0 mm 6 m/S 741 mmHg 94%
    06:00 +16°C° 0 mm 7 m/S 741 mmHg 90%
    07:00 +17°C° 0 mm 7 m/S 741 mmHg 86%
    08:00 +18°C° 0 mm 8 m/S 741 mmHg 82%
    09:00 +20°C° 0 mm 8 m/S 741 mmHg 79%
    10:00 +21°C° 0 mm 8 m/S 741 mmHg 75%
    11:00 +22°C° 0 mm 8 m/S 741 mmHg 72%
    12:00 +23°C° 0.3 mm 7 m/S 740 mmHg 70%
    13:00 +23°C° 0.3 mm 7 m/S 740 mmHg 69%
    14:00 +24°C° 0.3 mm 7 m/S 740 mmHg 67%
    15:00 +23°C° 0.7 mm 6 m/S 740 mmHg 69%
    16:00 +23°C° 0.7 mm 6 m/S 739 mmHg 70%
    17:00 +23°C° 0.7 mm 5 m/S 739 mmHg 71%
    18:00 +21°C° 0.8 mm 5 m/S 739 mmHg 75%
    19:00 +20°C° 0.8 mm 5 m/S 739 mmHg 78%
    20:00 +19°C° 0.8 mm 5 m/S 740 mmHg 82%
    21:00 +17°C° 1.2 mm 5 m/S 740 mmHg 83%
    22:00 +17°C° 1.2 mm 6 m/S 740 mmHg 84%
    23:00 +16°C° 1.2 mm 6 m/S 740 mmHg 85%

    22 Mai, Mittwoch

    Zeit Temperatur Niederschläge Wind Luftdruck Luftfeuchtigkeit
    00:00 +16°C° 0.9 mm 5 m/S 740 mmHg 87%
    01:00 +17°C° 0.9 mm 4 m/S 740 mmHg 88%
    02:00 +16°C° 0.9 mm 3 m/S 740 mmHg 90%
    03:00 +16°C° 0 mm 3 m/S 740 mmHg 91%
    04:00 +16°C° 0 mm 3 m/S 740 mmHg 92%
    05:00 +14°C° 0 mm 3 m/S 740 mmHg 93%
    06:00 +16°C° 0 mm 3 m/S 740 mmHg 90%
    07:00 +17°C° 0 mm 3 m/S 740 mmHg 88%
    08:00 +18°C° 0 mm 3 m/S 740 mmHg 85%
    09:00 +19°C° 0.8 mm 2 m/S 740 mmHg 79%
    10:00 +20°C° 0.8 mm 2 m/S 740 mmHg 74%
    11:00 +21°C° 0.8 mm 2 m/S 740 mmHg 68%
    12:00 +22°C° 0.3 mm 3 m/S 740 mmHg 65%
    13:00 +22°C° 0.3 mm 3 m/S 740 mmHg 61%
    14:00 +24°C° 0.3 mm 3 m/S 740 mmHg 58%
    15:00 +22°C° 0.5 mm 4 m/S 740 mmHg 64%
    16:00 +21°C° 0.5 mm 4 m/S 740 mmHg 70%
    17:00 +20°C° 0.5 mm 5 m/S 739 mmHg 76%
    18:00 +19°C° 0.1 mm 4 m/S 740 mmHg 80%
    19:00 +17°C° 0.1 mm 3 m/S 740 mmHg 84%
    20:00 +16°C° 0.1 mm 3 m/S 740 mmHg 88%
    21:00 +16°C° 0 mm 3 m/S 740 mmHg 88%
    22:00 +14°C° 0 mm 3 m/S 740 mmHg 88%
    23:00 +14°C° 0 mm 3 m/S 740 mmHg 88%

    23 Mai, Donnerstag

    Zeit Temperatur Niederschläge Wind Luftdruck Luftfeuchtigkeit
    00:00 +14°C° 0 mm 2 m/S 740 mmHg 87%
    01:00 +14°C° 0 mm 2 m/S 740 mmHg 86%
    02:00 +14°C° 0 mm 2 m/S 740 mmHg 85%
    03:00 +14°C° 0 mm 2 m/S 740 mmHg 85%
    04:00 +14°C° 0 mm 2 m/S 740 mmHg 86%
    05:00 +14°C° 0 mm 2 m/S 740 mmHg 87%
    06:00 +15°C° 0 mm 2 m/S 740 mmHg 82%
    07:00 +17°C° 0 mm 3 m/S 740 mmHg 78%
    08:00 +19°C° 0 mm 3 m/S 740 mmHg 74%
    09:00 +20°C° 0.3 mm 3 m/S 740 mmHg 70%
    10:00 +21°C° 0.3 mm 3 m/S 740 mmHg 65%
    11:00 +22°C° 0.3 mm 3 m/S 740 mmHg 61%
    12:00 +22°C° 1 mm 3 m/S 740 mmHg 62%
    13:00 +22°C° 1 mm 3 m/S 739 mmHg 63%
    14:00 +24°C° 1 mm 3 m/S 739 mmHg 64%
    15:00 +24°C° 0.2 mm 3 m/S 739 mmHg 64%
    16:00 +24°C° 0.2 mm 3 m/S 739 mmHg 64%
    17:00 +24°C° 0.2 mm 2 m/S 739 mmHg 64%
    18:00 +21°C° 0.4 mm 2 m/S 739 mmHg 69%
    19:00 +19°C° 0.4 mm 2 m/S 739 mmHg 75%
    20:00 +18°C° 0.4 mm 2 m/S 739 mmHg 81%
    21:00 +17°C° 0.1 mm 2 m/S 739 mmHg 83%
    22:00 +17°C° 0.1 mm 2 m/S 739 mmHg 84%
    23:00 +16°C° 0.1 mm 1 m/S 739 mmHg 86%

    24 Mai, Freitag

    Zeit Temperatur Niederschläge Wind Luftdruck Luftfeuchtigkeit
    00:00 +16°C° 0 mm 1 m/S 739 mmHg 87%
    01:00 +16°C° 0 mm 1 m/S 739 mmHg 89%
    02:00 +15°C° 0 mm 1 m/S 739 mmHg 90%
    03:00 +15°C° 0 mm 1 m/S 739 mmHg 90%
    04:00 +15°C° 0 mm 1 m/S 739 mmHg 91%
    05:00 +15°C° 0 mm 1 m/S 739 mmHg 91%
    06:00 +16°C° 0 mm 1 m/S 739 mmHg 87%
    07:00 +19°C° 0 mm 1 m/S 739 mmHg 83%
    08:00 +20°C° 0 mm 1 m/S 739 mmHg 79%
    09:00 +21°C° 0.5 mm 1 m/S 739 mmHg 75%
    10:00 +22°C° 0.5 mm 1 m/S 739 mmHg 70%
    11:00 +23°C° 0.5 mm 1 m/S 738 mmHg 65%
    12:00 +24°C° 0.3 mm 1 m/S 738 mmHg 63%
    13:00 +24°C° 0.3 mm 1 m/S 738 mmHg 61%
    14:00 +24°C° 0.3 mm 1 m/S 737 mmHg 58%
    15:00 +24°C° 0.5 mm 1 m/S 737 mmHg 60%
    16:00 +24°C° 0.5 mm 1 m/S 737 mmHg 62%
    17:00 +24°C° 0.5 mm 1 m/S 736 mmHg 64%
    18:00 +22°C° 0.8 mm 1 m/S 736 mmHg 70%
    19:00 +20°C° 0.8 mm 2 m/S 736 mmHg 77%
    20:00 +18°C° 0.8 mm 2 m/S 736 mmHg 83%
    21:00 +18°C° 1.1 mm 2 m/S 736 mmHg 86%
    22:00 +17°C° 1.1 mm 2 m/S 735 mmHg 89%
    23:00 +17°C° 1.1 mm 2 m/S 735 mmHg 92%
    Mehr zeigen